Tracking 26544 objects as of 9-Dec-2022
HD Live streaming from Space Station
objects crossing your sky now

RADCAL

Track RADCAL now!
10-day predictions
RADCAL is classified as:


NORAD ID: 22698
Int'l Code: 1993-041A
Perigee: 755.0 km
Apogee: 886.1 km
Inclination: 89.5 °
Period: 101.2 minutes
Semi major axis: 7191 km
RCS: 0.589 m2 (medium)
Launch date: June 25, 1993
Source: United States (US)
Launch site: AIR FORCE WESTERN TEST RANGE (AFWTR)

This spacecraft was used to help calibrate radar target cross section data.
aabbcc
Your satellite tracking list
Your tracking list is empty




NASA's NSSDC Master Catalog

Two Line Element Set (TLE):
1 22698U 93041A   22342.72114098  .00000129  00000-0  48593-4 0  9994
2 22698  89.5283 133.1165 0091103  74.4170 286.7055 14.23536205529405
Source of the keplerian elements: AFSPC